Location: D�derode
(51.8092°N, 10.1065°E)
Time: 05:16:37
(UTC+00:00)

Cosmos 1869 Rocket - Pass Details

Date: 17 April 2021
Orbit: 604 x 634 km, 82.5° (Epoch: 11 May)

Event Time Altitude Azimuth Distance (km) Brightness Sun altitude
Rises 00:41:19 0° 346° (NNW) 2,908 7.8 -25.2°
Reaches altitude 10° 00:43:35 10° 342° (NNW) 1,992 6.8 -25.1°
Enters shadow 00:47:07 48° 305° (NW) 811 4.1 -24.9°
